When you browse on this site, cookies collect data to enhance your experience and personalize the content and advertising you see.
Visit our Privacy Policy to learn more. By continuing to use the site, you agree to this use of cookies and data.
  • In Sweden
  • List of Countries
  • For 7 days
  • Water Temperature
  • Satellite Maps
  • Weather Map
  • Weather Widgets
  • user-avatar
    Login

    Hourly Weather Cleveland Heights

    Today, 24 May, Friday

    Time Temperature Precipitation Wind Pressure Humidity
    00:00 +17°C° 0 mm 4 mps 739 mmHg 70%
    01:00 +15°C° 0 mm 4 mps 739 mmHg 75%
    02:00 +14°C° 0 mm 3 mps 739 mmHg 79%
    03:00 +13°C° 0 mm 3 mps 740 mmHg 84%
    04:00 +13°C° 0 mm 2 mps 740 mmHg 88%
    05:00 +14°C° 0 mm 2 mps 740 mmHg 85%
    06:00 +14°C° 0 mm 1 mps 741 mmHg 82%
    07:00 +15°C° 0 mm 1 mps 741 mmHg 79%
    08:00 +18°C° 0 mm 1 mps 741 mmHg 72%
    09:00 +18°C° 0 mm 2 mps 741 mmHg 65%
    10:00 +19°C° 0 mm 2 mps 742 mmHg 58%
    11:00 +20°C° 0 mm 2 mps 742 mmHg 57%
    12:00 +20°C° 0 mm 2 mps 741 mmHg 56%
    13:00 +21°C° 0 mm 1 mps 741 mmHg 55%
    14:00 +20°C° 0 mm 2 mps 741 mmHg 55%
    15:00 +20°C° 0 mm 2 mps 741 mmHg 55%
    16:00 +21°C° 0 mm 2 mps 741 mmHg 54%
    17:00 +19°C° 0 mm 2 mps 741 mmHg 60%
    18:00 +18°C° 0 mm 2 mps 741 mmHg 66%
    19:00 +16°C° 0 mm 3 mps 740 mmHg 72%
    20:00 +16°C° 0 mm 3 mps 740 mmHg 72%
    21:00 +16°C° 0 mm 3 mps 741 mmHg 73%
    22:00 +16°C° 0 mm 3 mps 741 mmHg 73%
    23:00 +16°C° 0 mm 3 mps 740 mmHg 72%

    Tomorrow, 25 May, Saturday

    Time Temperature Precipitation Wind Pressure Humidity
    00:00 +16°C° 0 mm 3 mps 740 mmHg 71%
    01:00 +15°C° 0 mm 4 mps 740 mmHg 70%
    02:00 +15°C° 0.3 mm 4 mps 740 mmHg 75%
    03:00 +15°C° 0.3 mm 4 mps 739 mmHg 80%
    04:00 +15°C° 0.3 mm 4 mps 739 mmHg 85%
    05:00 +17°C° 0.1 mm 4 mps 739 mmHg 86%
    06:00 +17°C° 0.1 mm 4 mps 739 mmHg 87%
    07:00 +18°C° 0.1 mm 4 mps 739 mmHg 88%
    08:00 +20°C° 0.2 mm 5 mps 738 mmHg 85%
    09:00 +23°C° 0.2 mm 5 mps 738 mmHg 82%
    10:00 +26°C° 0.2 mm 5 mps 738 mmHg 78%
    11:00 +27°C° 0.3 mm 5 mps 738 mmHg 72%
    12:00 +28°C° 0.3 mm 5 mps 737 mmHg 66%
    13:00 +30°C° 0.3 mm 5 mps 737 mmHg 60%
    14:00 +29°C° 0.5 mm 5 mps 737 mmHg 62%
    15:00 +29°C° 0.5 mm 5 mps 736 mmHg 64%
    16:00 +29°C° 0.5 mm 5 mps 736 mmHg 66%
    17:00 +28°C° 1.9 mm 5 mps 736 mmHg 70%
    18:00 +26°C° 1.9 mm 5 mps 736 mmHg 75%
    19:00 +25°C° 1.9 mm 5 mps 736 mmHg 79%
    20:00 +23°C° 1.6 mm 5 mps 736 mmHg 82%
    21:00 +22°C° 1.6 mm 5 mps 736 mmHg 85%
    22:00 +22°C° 1.6 mm 4 mps 737 mmHg 88%
    23:00 +21°C° 0.1 mm 4 mps 736 mmHg 89%

    Day after tomorrow, 26 May, Sunday

    Time Temperature Precipitation Wind Pressure Humidity
    00:00 +21°C° 0.1 mm 4 mps 736 mmHg 91%
    01:00 +21°C° 0.1 mm 4 mps 736 mmHg 92%
    02:00 +21°C° 0 mm 4 mps 736 mmHg 93%
    03:00 +20°C° 0 mm 4 mps 736 mmHg 95%
    04:00 +20°C° 0 mm 3 mps 736 mmHg 97%
    05:00 +21°C° 0.1 mm 3 mps 736 mmHg 96%
    06:00 +21°C° 0.1 mm 3 mps 736 mmHg 95%
    07:00 +21°C° 0.1 mm 3 mps 737 mmHg 94%
    08:00 +22°C° 0.3 mm 3 mps 737 mmHg 92%
    09:00 +22°C° 0.3 mm 3 mps 737 mmHg 91%
    10:00 +23°C° 0.3 mm 4 mps 737 mmHg 89%
    11:00 +24°C° 0 mm 3 mps 737 mmHg 85%
    12:00 +25°C° 0 mm 2 mps 737 mmHg 81%
    13:00 +25°C° 0 mm 2 mps 737 mmHg 77%
    14:00 +24°C° 1.7 mm 2 mps 737 mmHg 82%
    15:00 +23°C° 1.7 mm 2 mps 737 mmHg 87%
    16:00 +21°C° 1.7 mm 2 mps 737 mmHg 91%
    17:00 +21°C° 1.2 mm 2 mps 737 mmHg 92%
    18:00 +20°C° 1.2 mm 2 mps 737 mmHg 92%
    19:00 +20°C° 1.2 mm 3 mps 737 mmHg 93%
    20:00 +19°C° 1.9 mm 3 mps 737 mmHg 92%
    21:00 +18°C° 1.9 mm 3 mps 737 mmHg 92%
    22:00 +17°C° 1.9 mm 3 mps 737 mmHg 91%
    23:00 +16°C° 0 mm 3 mps 737 mmHg 90%

    27 May, Monday

    Time Temperature Precipitation Wind Pressure Humidity
    00:00 +14°C° 0 mm 3 mps 737 mmHg 88%
    01:00 +13°C° 0 mm 3 mps 737 mmHg 87%
    02:00 +13°C° 0 mm 3 mps 737 mmHg 87%
    03:00 +13°C° 0 mm 2 mps 737 mmHg 88%
    04:00 +13°C° 0 mm 2 mps 737 mmHg 89%
    05:00 +13°C° 0 mm 2 mps 737 mmHg 89%
    06:00 +14°C° 0 mm 2 mps 738 mmHg 90%
    07:00 +14°C° 0 mm 2 mps 738 mmHg 90%
    08:00 +16°C° 0 mm 2 mps 738 mmHg 81%
    09:00 +19°C° 0 mm 2 mps 738 mmHg 72%
    10:00 +21°C° 0 mm 2 mps 739 mmHg 63%
    11:00 +23°C° 0 mm 2 mps 738 mmHg 60%
    12:00 +24°C° 0 mm 2 mps 738 mmHg 57%
    13:00 +25°C° 0 mm 3 mps 737 mmHg 53%
    14:00 +25°C° 0 mm 3 mps 737 mmHg 53%
    15:00 +25°C° 0 mm 3 mps 736 mmHg 53%
    16:00 +25°C° 0 mm 3 mps 736 mmHg 54%
    17:00 +24°C° 0 mm 3 mps 736 mmHg 60%
    18:00 +22°C° 0 mm 3 mps 736 mmHg 66%
    19:00 +20°C° 0 mm 3 mps 735 mmHg 73%
    20:00 +20°C° 0.6 mm 3 mps 735 mmHg 77%
    21:00 +19°C° 0.6 mm 3 mps 735 mmHg 82%
    22:00 +19°C° 0.6 mm 3 mps 734 mmHg 87%
    23:00 +19°C° 0.2 mm 4 mps 734 mmHg 87%

    28 May, Tuesday

    Time Temperature Precipitation Wind Pressure Humidity
    00:00 +19°C° 0.2 mm 5 mps 733 mmHg 87%
    01:00 +20°C° 0.2 mm 6 mps 733 mmHg 87%
    02:00 +20°C° 0.3 mm 6 mps 732 mmHg 88%
    03:00 +20°C° 0.3 mm 6 mps 732 mmHg 89%
    04:00 +20°C° 0.3 mm 6 mps 731 mmHg 90%
    05:00 +21°C° 0 mm 6 mps 731 mmHg 89%
    06:00 +22°C° 0 mm 6 mps 732 mmHg 89%
    07:00 +22°C° 0 mm 6 mps 732 mmHg 88%
    08:00 +23°C° 0.3 mm 6 mps 732 mmHg 86%
    09:00 +24°C° 0.3 mm 6 mps 732 mmHg 85%
    10:00 +26°C° 0.3 mm 6 mps 732 mmHg 84%
    11:00 +27°C° 0.1 mm 6 mps 731 mmHg 75%
    12:00 +29°C° 0.1 mm 6 mps 731 mmHg 67%
    13:00 +30°C° 0.1 mm 6 mps 731 mmHg 59%
    14:00 +30°C° 0 mm 6 mps 731 mmHg 59%
    15:00 +30°C° 0 mm 6 mps 731 mmHg 58%
    16:00 +32°C° 0 mm 5 mps 731 mmHg 58%
    17:00 +29°C° 0.6 mm 5 mps 731 mmHg 66%
    18:00 +27°C° 0.6 mm 5 mps 731 mmHg 73%
    19:00 +26°C° 0.6 mm 5 mps 731 mmHg 81%
    20:00 +25°C° 1.1 mm 4 mps 731 mmHg 84%
    21:00 +25°C° 1.1 mm 4 mps 731 mmHg 87%
    22:00 +23°C° 1.1 mm 4 mps 731 mmHg 89%
    23:00 +23°C° 1.3 mm 4 mps 731 mmHg 90%

    29 May, Wednesday

    Time Temperature Precipitation Wind Pressure Humidity
    00:00 +23°C° 1.3 mm 4 mps 731 mmHg 91%
    01:00 +22°C° 1.3 mm 4 mps 731 mmHg 92%
    02:00 +22°C° 3.6 mm 4 mps 731 mmHg 93%
    03:00 +22°C° 3.6 mm 3 mps 730 mmHg 94%
    04:00 +21°C° 3.6 mm 3 mps 730 mmHg 95%
    05:00 +22°C° 1.6 mm 4 mps 730 mmHg 94%
    06:00 +23°C° 1.6 mm 5 mps 730 mmHg 92%
    07:00 +23°C° 1.6 mm 6 mps 730 mmHg 91%
    08:00 +24°C° 0.4 mm 6 mps 730 mmHg 87%
    09:00 +26°C° 0.4 mm 7 mps 730 mmHg 83%
    10:00 +27°C° 0.4 mm 7 mps 730 mmHg 78%
    11:00 +28°C° 0.2 mm 8 mps 729 mmHg 72%
    12:00 +29°C° 0.2 mm 8 mps 729 mmHg 65%
    13:00 +31°C° 0.2 mm 9 mps 729 mmHg 58%
    14:00 +29°C° 1.2 mm 9 mps 728 mmHg 64%
    15:00 +27°C° 1.2 mm 9 mps 728 mmHg 70%
    16:00 +26°C° 1.2 mm 8 mps 728 mmHg 76%
    17:00 +26°C° 0.3 mm 8 mps 728 mmHg 74%
    18:00 +26°C° 0.3 mm 8 mps 728 mmHg 72%
    19:00 +26°C° 0.3 mm 7 mps 728 mmHg 71%
    20:00 +24°C° 1.1 mm 8 mps 728 mmHg 75%
    21:00 +23°C° 1.1 mm 8 mps 728 mmHg 80%
    22:00 +21°C° 1.1 mm 8 mps 728 mmHg 85%
    23:00 +21°C° 0.1 mm 8 mps 728 mmHg 84%
    Show more